Salem, MA

8:00 PM EST on February 05, 2016 (GMT -0500)
Chestnut Street | | Change Station
CLOSE
Current Station
Personal Weather Station
Location: Salem, MA
Elevation: 56 ft
Nearby Weather Stations

Elev 56 ft 42.52 °N, 70.90 °W | Updated 5 seconds ago

Mostly Cloudy
Mostly Cloudy
27.9 °F
Feels Like 28 °F
N
0.0
Wind Variable Wind from SSW
Gusts 0.0 mph

Today
High -- | Low -- °F
--% Chance of Precip.
Yesterday
High -- | Low -- °F
Precip. -- in
Pressure 30.13 in
Visibility 10.0 miles
Clouds Clear
Windchill 28 °F
Dew Point 21 °F
Humidity 74%
Rainfall 0.54 in
Snow Depth Not available.
6:53 AM 5:02 PM
Waning Crescent, 8% visible
METAR KBVY 060053Z AUTO 31013G18KT 10SM CLR M03/M07 A3013 RMK AO2 SLP201 T10331072
Pressure 30.13 in
Visibility 10.0 miles
Clouds Clear
Windchill 28 °F
Dew Point 21 °F
Humidity 74%
Rainfall 0.54 in
Snow Depth Not available.
6:53 AM 5:02 PM
Waning Crescent, 8% visible
METAR KBVY 060053Z AUTO 31013G18KT 10SM CLR M03/M07 A3013 RMK AO2 SLP201 T10331072

10-Day Weather Forecast

Almanac

Astronomy

Feb. 05, 2016 Rise Set
Actual Time
Civil Twilight
Nautical Twilight
Astronomical Twilight
Moon
Length of Visible Light
Length of Day
Tomorrow will be .
, % of the Moon is Illuminated

Today's Extremes

State Highs State Lows

Community

WunderPhotos

Upload Photos

1,890,900 photos uploaded!

WunderBlog® & News

Nearby

Air Quality

  Air Quality AQ Index Pollutant
Not available.

Snow Depth

Station Depth Elevation

Earthquake Activity

City Distance Mag. Time & Date
Minimum magnitude displayed is 2.5.

Coastal Water Temperatures

Place Temperature

Stations

Nearby Weather Stations

Station Location Temp. Windchill Dew Point Humidity Wind Precip. Elev Updated Type
                   

Watches & Warnings

Special Statement
Issued: 4:45 PM EST Feb. 5, 2016 – National Weather Service

... Patches of black ice possible overnight into tomorrow...

Temperatures are expected to drop rapidly this evening and
overnight... into the teens and low 20s. This will lead to rapid
freezing of untreated roadways and walkways... which could become
slippery with black ice.

Those commuting are urged to use caution and allow for extra time
as the ice may be difficult to see.


445 PM EST Fri Feb 5 2016

... Patches of black ice possible overnight into tomorrow...

Temperatures are expected to drop rapidly this evening and
overnight... into the teens and low 20s. This will lead to rapid
freezing of untreated roadways and walkways... which could become
slippery with black ice.

Those commuting are urged to use caution and allow for extra time
as the ice may be difficult to see.